Regional Weather Roundup
Issued by NWS

Home | Current Version | Previous Version | Text Only | Print | Product List | Glossary On
Versions: 1 2 3 4 5 6 7 8 9 10 11 12 13 14 15 16 17 18 19 20 21 22 23 24 25 26 27 28 29 30 31 32 33 34 35 36 37 38 39 40 41 42 43 44 45 46 47 48 49 50
000
ASUS43 KLOT 280708
RWRIL

ILLINOIS REGIONAL WEATHER ROUNDUP
NATIONAL WEATHER SERVICE CHICAGO/ROMEOVILLE IL
200 AM CDT WED JUN 28 2017

NOTE: "FAIR" INDICATES FEW OR NO CLOUDS BELOW 12,000 FEET WITH NO
SIGNIFICANT WEATHER AND/OR OBSTRUCTIONS TO VISIBILITY.

* THESE STATIONS ARE NOT UNDER NWS QUALITY CONTROL. THEY ALSO MAY NOT
  REPORT WEATHER SUCH AS PRECIPITATION OR FOG.

ILZ001-002-007-009-015-016-024-280800-
NORTHWEST ILLINOIS

CITY           SKY/WX    TMP DP  RH WIND       PRES   REMARKS
MOLINE         CLEAR     62  51  67 SE9       29.92F
STERLING*      CLEAR     59  50  72 SE6       29.97F
SAVANNA*       CLOUDY    57  51  79 S5        29.94F
$$

ILZ003-004-008-010-011-017-018-280800-
NORTH CENTRAL ILLINOIS

CITY           SKY/WX    TMP DP  RH WIND       PRES   REMARKS
ROCKFORD       CLEAR     58  47  66 S8        30.00F
FREEPORT*      PTCLDY    58  48  68 SE7       29.98F
ROCHELLE*      CLEAR     57  48  71 SE8       30.01F
DE KALB*       CLEAR     57  47  68 S8        30.02F
PERU*          CLEAR     58  48  69 S9        30.02F
$$

ILZ005-006-012>014-019>023-280800-
NORTHEAST ILLINOIS

CITY           SKY/WX    TMP DP  RH WIND       PRES   REMARKS
CHICAGO-OHARE  PTCLDY    58  47  66 S8        30.03F
CHICAGO-MIDWAY PTCLDY    64  48  56 S8        30.05S
AURORA         CLEAR     57  48  72 SE6       30.03F
LANSING*       CLEAR     56  46  69 S6        30.07R
JOLIET*        CLEAR     61  50  68 SE5       30.05S
WAUKEGAN       CLEAR     56  49  77 S5        30.02F
DUPAGE AIRPORT CLEAR     56  49  77 S6        30.03F
WHEELING       CLEAR     57  49  74 SE5       30.04F
MORRIS*        CLEAR     58  49  72 S6        30.03F
ROMEOVILLE*    CLEAR     58  46  63 S8        30.05S
$$

LMZ740>746-280800-
SOUTHERN LAKE MICHIGAN

STATION/POSITION SKY/WX   TEMP    WIND        PRES    VSBY  WAVE
                          AIR SEA DIR/SP/G                  HT/PER
                          (F)     (DEG/KT/KT) (MB)    (MI)  (FT/S)
SOUTHERN BUOY              64 61  180/ 14/ 16 1017.0F         1/ 3
WILMETTE HARBOR            65 63  180/  6/ 10   N/A           1
HARRISON CRIB              67     210/ 14/ 15   N/A
BURNHAM HARBOR             65                   N/A
CALUMET HARBOR                    190/  5/  9   N/A
BURNS HARBOR               63     190/  9/ 11 1018.6R
MICHIGAN CITY              63     160/ 12/ 14   N/A
MICHIGAN CITY 6N           63 66  180/ 12/ 14   N/A           1
ST. JOSEPH                 65 69  200/ 12/ 16 1018.3          2/ 2
$$

ILZ025>027-034>036-040-047-049-050-058-095>099-280800-
WEST-CENTRAL ILLINOIS

CITY           SKY/WX    TMP DP  RH WIND       PRES   REMARKS
QUINCY         MOCLDY    68  55  63 S12       29.94F
GALESBURG*     CLEAR     61  53  73 SE8       29.96F
MACOMB*        PTCLDY    60  53  79 SE7       29.97F
JACKSONVILLE*  CLEAR     65  53  64 SE10      30.00F
PITTSFIELD*    CLEAR     64  56  76 SE6       29.99F
$$

ILZ028>032-037-038-041>044-048-051>054-059>061-280800-
CENTRAL ILLINOIS

CITY           SKY/WX    TMP DP  RH WIND       PRES   REMARKS
PONTIAC        CLEAR     59  52  78 SE6       30.05F
BLOOMINGTON    CLEAR     57  49  74 S9        30.06S
DECATUR        CLEAR     60  50  69 SE8       30.06S
PEORIA         CLEAR     63  50  62 S8        30.01F
LACON*         CLEAR     58  49  71 S6        30.00F
LINCOLN*       CLEAR     60  53  76 S5        30.04F
SPRINGFIELD    CLEAR     66  53  63 S9        30.04S
TAYLORVILLE    CLEAR     59  53  80 S7        30.05S
$$

ILZ033-039-045-046-055>057-062-063-280800-
EAST-CENTRAL ILLINOIS

CITY           SKY/WX    TMP DP  RH WIND       PRES   REMARKS
CHAMPAIGN      CLEAR     58  48  69 SE7       30.07F
RANTOUL*       CLEAR     57  51  81 CALM      30.08S
MATTOON        CLEAR     57  51  80 S7        30.07S
PARIS*         CLEAR     54  50  87 SE6       30.10S
$$

ILZ079-100>102-280800-
SOUTHWEST ILLINOIS

CITY           SKY/WX    TMP DP  RH WIND       PRES   REMARKS
ALTON          CLEAR     61  56  83 CALM      30.05R
BELLEVILLE     CLEAR     62  55  77 CALM      30.06S
CAHOKIA*       CLEAR     63  54  72 SE3       30.04S
SPARTA*        CLEAR     62  56  81 SE3       30.06S
$$

ILZ064>066-069>071-074>076-080>082-084>086-088>090-092>094-280800-
SOUTH-CENTRAL ILLINOIS

CITY           SKY/WX    TMP DP  RH WIND       PRES   REMARKS
CARBONDALE     CLEAR     61  58  90 CALM      30.06F
CAIRO*         CLEAR     64  60  84 CALM      30.06F
EFFINGHAM*     CLEAR     59  54  84 E5        30.09S
MARION         PTCLDY    64  55  72 SE3       30.07S
MT. VERNON     CLEAR     58  53  84 CALM      30.06F
CENTRALIA*     CLEAR     64  53  68 SE6       30.05F
SALEM*         CLEAR     65  51  61 SE5       30.07S
METROPOLIS*    CLEAR     63  57  82 CALM      30.07F
$$

ILZ067-068-072-073-078-083-087-091-280800-
SOUTHEAST ILLINOIS

CITY           SKY/WX    TMP DP  RH WIND       PRES   REMARKS
LAWRENCEVILLE  CLEAR     59  53  80 CALM      30.09F
FLORA*         CLEAR     58  53  81 CALM      30.08S
FAIRFIELD*     CLEAR     58  55  88 CALM      30.06F
HARRISBURG*    PTCLDY    59  55  88 CALM      30.07F
ROBINSON*      CLEAR     54  50  87 CALM      30.10F
CARMI*         CLEAR     56  56  97 CALM      30.07F
$$

ABBREVIATIONS USED IN REMARKS
   TC - TEMPERATURE IN CELSIUS
  WCI - WIND CHILL INDEX
   HX - HEAT INDEX
  VSB - VISIBILITY
$$





USA.gov is the U.S. government's official web portal to all federal, state and local government web resources and services.